LRSB Weather Reports


Display with metric or nautical units.
time (UTC)temp
F
wind
direction
speed
MPH
gust
MPH
rain 1hr
in
rain 24hr
in
rain mn
in
humidity
%
barometer
mb
20260509151812 59 310 6.0 0.0 0.00 0.00 0.00 88 1016.0
20260509150311 59 310 6.0 0.0 0.00 0.00 0.00 88 1016.0
20260509144811 59 300 7.0 0.0 0.00 0.00 0.00 94 1016.0
20260509143311 59 300 7.0 0.0 0.00 0.00 0.00 94 1016.0
20260509141808 59 300 10.0 0.0 0.00 0.00 0.00 88 1015.0
20260509140311 59 300 10.0 0.0 0.00 0.00 0.00 88 1015.0
20260509134811 59 280 10.0 0.0 0.00 0.00 0.00 88 1015.0
20260509133311 59 280 10.0 0.0 0.00 0.00 0.00 88 1015.0
20260509131811 59 270 8.0 0.0 0.00 0.00 0.00 94 1015.0
20260509130311 59 270 8.0 0.0 0.00 0.00 0.00 94 1015.0
20260509124812 59 290 9.0 0.0 0.00 0.00 0.00 94 1016.0
20260509123311 59 290 9.0 0.0 0.00 0.00 0.00 94 1016.0
20260509120311 61 270 8.0 0.0 0.00 0.00 0.00 94 1015.0
20260509114811 61 300 9.0 0.0 0.00 0.00 0.00 88 1015.0
20260509113311 61 300 9.0 0.0 0.00 0.00 0.00 88 1015.0
20260509111811 61 330 9.0 0.0 0.00 0.00 0.00 94 1015.0
20260509110311 61 330 9.0 0.0 0.00 0.00 0.00 94 1015.0
20260509104810 61 320 10.0 0.0 0.00 0.00 0.00 88 1015.0
20260509103311 61 320 10.0 0.0 0.00 0.00 0.00 88 1015.0
20260509101811 61 330 10.0 0.0 0.00 0.00 0.00 94 1015.0
20260509100311 61 330 10.0 0.0 0.00 0.00 0.00 94 1015.0
20260509094811 61 330 8.0 0.0 0.00 0.00 0.00 88 1015.0
20260509093310 61 330 8.0 0.0 0.00 0.00 0.00 88 1015.0
20260509091936 61 330 6.0 0.0 0.00 0.00 0.00 88 1015.0
20260509090312 61 330 6.0 0.0 0.00 0.00 0.00 88 1015.0
20260509084811 61 330 5.0 0.0 0.00 0.00 0.00 88 1016.0
20260509083311 61 330 5.0 0.0 0.00 0.00 0.00 88 1016.0
20260509081843 61 340 3.0 0.0 0.00 0.00 0.00 88 1016.0
20260509080311 61 340 3.0 0.0 0.00 0.00 0.00 88 1016.0
20260509074811 59 2.0 0.0 0.00 0.00 0.00 94 1015.0
20260509073311 59 2.0 0.0 0.00 0.00 0.00 94 1015.0
20260509071811 59 280 3.0 0.0 0.00 0.00 0.00 94 1015.0
20260509070311 59 280 3.0 0.0 0.00 0.00 0.00 94 1015.0
20260509064811 59 1.0 0.0 0.00 0.00 0.00 94 1015.0
20260509063311 59 1.0 0.0 0.00 0.00 0.00 94 1015.0
20260509061811 57 160 2.0 0.0 0.00 0.00 0.00 94 1015.0
20260509060311 57 160 2.0 0.0 0.00 0.00 0.00 94 1015.0
20260509054811 57 110 3.0 0.0 0.00 0.00 0.00 94 1015.0
20260509053311 57 110 3.0 0.0 0.00 0.00 0.00 94 1015.0
20260509051811 55 80 2.0 0.0 0.00 0.00 0.00 100 1015.0
20260509050310 55 80 2.0 0.0 0.00 0.00 0.00 100 1015.0
20260509044812 55 1.0 0.0 0.00 0.00 0.00 100 1015.0
20260509043311 55 1.0 0.0 0.00 0.00 0.00 100 1015.0
20260509041811 55 1.0 0.0 0.00 0.00 0.00 100 1015.0
20260509040311 55 1.0 0.0 0.00 0.00 0.00 100 1015.0
20260509034811 55 1.0 0.0 0.00 0.00 0.00 94 1015.0
20260509033311 55 1.0 0.0 0.00 0.00 0.00 94 1015.0
20260509031811 54 230 3.0 0.0 0.00 0.00 0.00 100 1015.0
20260509030311 54 230 3.0 0.0 0.00 0.00 0.00 100 1015.0
20260509024810 55 2.0 0.0 0.00 0.00 0.00 94 1015.0
20260509023310 55 2.0 0.0 0.00 0.00 0.00 94 1015.0
20260509021811 55 1.0 0.0 0.00 0.00 0.00 94 1015.0
20260509020311 55 1.0 0.0 0.00 0.00 0.00 94 1015.0
20260509014811 54 200 3.0 0.0 0.00 0.00 0.00 100 1015.0
20260509013311 54 200 3.0 0.0 0.00 0.00 0.00 100 1015.0
20260509011811 54 210 1.0 0.0 0.00 0.00 0.00 94 1015.0
20260509010311 54 210 1.0 0.0 0.00 0.00 0.00 94 1015.0
20260509004811 55 360 2.0 0.0 0.00 0.00 0.00 94 1015.0
20260509003311 55 360 2.0 0.0 0.00 0.00 0.00 94 1015.0
20260509001811 55 350 1.0 0.0 0.00 0.00 0.00 88 1015.0
20260509000311 55 350 1.0 0.0 0.00 0.00 0.00 88 1015.0
20260508234811 54 1.0 0.0 0.00 0.00 0.00 100 1015.0
20260508233311 54 160 2.0 0.0 0.00 0.00 0.00 100 1015.0
20260508231811 52 250 3.0 0.0 0.00 0.00 0.00 100 1015.0
20260508230311 52 250 3.0 0.0 0.00 0.00 0.00 100 1015.0
20260508224811 54 270 5.0 0.0 0.00 0.00 0.00 94 1015.0
20260508223311 54 270 5.0 0.0 0.00 0.00 0.00 94 1015.0
20260508221811 54 240 3.0 0.0 0.00 0.00 0.00 94 1015.0
20260508220311 54 240 3.0 0.0 0.00 0.00 0.00 94 1015.0
20260508214810 59 290 3.0 0.0 0.00 0.00 0.00 82 1015.0
20260508213311 59 290 3.0 0.0 0.00 0.00 0.00 82 1015.0
20260508211811 57 250 3.0 0.0 0.00 0.00 0.00 82 1016.0
20260508210311 57 250 3.0 0.0 0.00 0.00 0.00 82 1016.0
20260508204811 59 2.0 0.0 0.00 0.00 0.00 88 1016.0
20260508203311 59 2.0 0.0 0.00 0.00 0.00 88 1016.0
20260508201811 59 2.0 0.0 0.00 0.00 0.00 88 1016.0
20260508200311 59 2.0 0.0 0.00 0.00 0.00 88 1016.0
20260508194812 59 220 6.0 0.0 0.00 0.00 0.00 94 1016.0
20260508193311 59 220 6.0 0.0 0.00 0.00 0.00 94 1016.0
20260508191811 61 180 5.0 0.0 0.00 0.00 0.00 88 1016.0
20260508190311 61 180 5.0 0.0 0.00 0.00 0.00 88 1016.0
20260508184811 61 130 5.0 0.0 0.00 0.00 0.00 88 1015.0
20260508183311 61 130 5.0 0.0 0.00 0.00 0.00 88 1015.0
20260508181814 63 1.0 0.0 0.00 0.00 0.00 83 1015.0
20260508180311 63 1.0 0.0 0.00 0.00 0.00 83 1015.0
20260508174812 63 130 5.0 0.0 0.00 0.00 0.00 83 1014.0
20260508173311 63 130 5.0 0.0 0.00 0.00 0.00 83 1014.0
20260508171811 64 120 6.0 0.0 0.00 0.00 0.00 78 1014.0
20260508170311 64 120 6.0 0.0 0.00 0.00 0.00 78 1014.0
20260508164811 64 110 6.0 0.0 0.00 0.00 0.00 83 1014.0
20260508163312 64 110 6.0 0.0 0.00 0.00 0.00 83 1014.0
20260508161811 64 100 8.0 0.0 0.00 0.00 0.00 83 1014.0
20260508160311 64 100 8.0 0.0 0.00 0.00 0.00 83 1014.0
20260508154812 66 140 3.0 0.0 0.00 0.00 0.00 78 1014.0
20260508153311 66 140 3.0 0.0 0.00 0.00 0.00 78 1014.0